Miscellaneous Local Product
Issued by NWS Hastings, NE

Home | Current Version | Previous Version | Text Only | Print | Product List | Glossary On
Versions: 1 2 3 4 5 6 7 8 9 10 11 12 13 14 15 16 17 18 19 20 21 22 23 24 25 26 27 28 29 30 31 32 33 34 35 36 37 38 39 40 41 42 43 44 45 46 47 48 49 50
000
AXUS43 KGID 210610
MISGRI

GID CWA HOURLY WEATHER ROUNDUP
NATIONAL WEATHER SERVICE HASTINGS NE
100 AM CDT SUN SEP 21 2014

NOTE: "FAIR" INDICATES FEW OR NO CLOUDS BELOW 12,000 FEET WITH NO
SIGNIFICANT WEATHER AND/OR OBSTRUCTIONS TO VISIBILITY.

...SOUTH CENTRAL NEBRASKA...

CITY           SKY/WX    TMP DP  RH WIND       PRES   REMARKS
GRAND ISLAND   CLEAR     57  48  72 W6        30.16R
HASTINGS       CLEAR     59  48  67 N8        30.16R
KEARNEY        CLEAR     57  48  72 W6        30.19R
ORD            CLEAR     53  46  77 SW3       30.16R
YORK           CLEAR     57  52  82 NW5       30.14R
AURORA         CLEAR     56  50  81 NW7       30.15R
LEXINGTON      CLEAR     55  48  79 W6        30.21R
HOLDREGE       CLEAR     56  49  76 CALM      30.19S
HEBRON         CLEAR     64  51  64 N5        30.13R

...NEBRASKA PANHANDLE...

CITY           SKY/WX    TMP DP  RH WIND       PRES   REMARKS
CHADRON        CLEAR     46  40  79 W5        30.29R
ALLIANCE       CLEAR     43  38  82 NW3       30.30R
SCOTTSBLUFF    MOCLDY    55  42  61 CALM      30.31S
SIDNEY         CLOUDY    58  42  55 N5        30.33R

...WESTERN AND NORTH CENTRAL NEBRASKA...

CITY           SKY/WX    TMP DP  RH WIND       PRES   REMARKS
VALENTINE      CLEAR     51  40  65 NW8       30.22R
AINSWORTH      CLEAR     52  41  66 W6        30.21R
ONEILL         CLEAR     53  46  76 W7        30.16R
BROKEN BOW     CLEAR     55  43  63 N8        30.19R
IMPERIAL       CLEAR     54  46  74 N5        30.26R
NORTH PLATTE   CLEAR     52  45  77 CALM      30.24R
MCCOOK         CLEAR     58  49  72 N8        30.22R

...EASTERN NEBRASKA...

CITY           SKY/WX    TMP DP  RH WIND       PRES   REMARKS
NORFOLK        CLEAR     55  48  77 W8        30.12R
SO SIOUX CITY  CLEAR     58  50  75 W8        30.07R
TEKAMAH        CLEAR     54  51  90 CALM      30.07S
COLUMBUS       CLEAR     52  46  82 NW6       30.13R
ALBION         CLEAR     51  46  80 NW5       30.15R
OMAHA EPPLEY   CLEAR     62  54  74 N6        30.07R
OFFUTT AFB     CLEAR     64  56  75 N5        30.06S
MILLARD        CLEAR     66  52  60 CALM      30.07R
LINCOLN        CLEAR     64  51  62 N9        30.10R
NEBRASKA CITY    N/A     64  49  57 NE6       30.08R
BEATRICE       CLEAR     62  53  71 N5        30.10R
FALLS CITY     CLEAR     67  58  72 N10       30.05R

...NORTHERN KANSAS...

CITY           SKY/WX    TMP DP  RH WIND       PRES   REMARKS
GOODLAND       PTCLDY    59  50  72 NE9       30.26R
HILL CITY      CLEAR     67  51  56 NE10      30.17R
NORTON         CLEAR     63  45  51 N9        30.19
SMITH CENTER   CLEAR     66  48  52 N14       30.15S
BELOIT         CLEAR     66  54  63 N7        30.10R
HAYS           CLEAR     64  55  72 NE7       30.12R
RUSSELL        CLEAR     66  61  84 CALM      30.09S
CONCORDIA      CLEAR     66  56  70 N8        30.10R
SALINA         CLEAR     69  66  90 CALM      30.05S
TOPEKA         CLEAR     66  65  96 W5        30.02R



USA.gov is the U.S. government's official web portal to all federal, state and local government web resources and services.